AirNav   Everest Fuels
 
 799 users online  

05IN Cooper Airport
Belleville, Indiana, USA

GOING TO BELLEVILLE?


FAA INFORMATION EFFECTIVE 21 MAY 2020

Location

FAA Identifier: 05IN
Lat/Long: 39-38-31.1670N 086-30-14.9910W
39-38.519450N 086-30.249850W
39.6419908,-86.5041642
(estimated)
Elevation: 860 ft. / 262 m (estimated)
Variation: 02W (1985)
From city: 3 miles SW of BELLEVILLE, IN
Time zone: UTC -4 (UTC -5 during Standard Time)
Zip code: 46118

Airport Operations

Airport use: Private use. Permission required prior to landing
Activation date: 01/1976
Control tower: no
ARTCC: INDIANAPOLIS CENTER
FSS: TERRE HAUTE FLIGHT SERVICE STATION
Attendance: UNATNDD
Segmented circle: no

Airport Communications

WX AWOS-3P at 2R2 (6 nm N): 118.025 (317-718-4872)
WX ASOS at IND (11 nm NE): PHONE 317-241-0348
WX AWOS-3PT at GPC (14 nm W): 118.125 (765-653-1789)
WX ASOS at EYE (15 nm NE): 121.575 (317-329-1754)
WX AWOS-3 at 8A4 (18 nm NE): 118.250 (317-955-3160)
WX AWOS-3P at HFY (19 nm E): 118.525 (317-882-5862)

Nearby radio navigation aids

VOR radial/distance  VOR name  Freq  Var
VHPr210/12.1BRICKYARD VORTAC116.3001E
OOMr012/30.3HOOSIER VORTAC110.2002W
SHBr270/31.4SHELBYVILLE VOR/DME112.0001E
TTHr073/35.7TERRE HAUTE VORTAC115.3002E

 
NDB name  Hdg/Dist  Freq  Var  ID
METROPOLITAN233/27.433803WUMP ..- -- .--.
CRAWFORDSVILLE141/27.838804WCFJ -.-. ..-. .---

Airport Services

Runway Information

Runway 8/26

Dimensions: 2000 x 100 ft. / 610 x 30 m
Surface: turf
RUNWAY 8  RUNWAY 26
Traffic pattern: leftleft

Airport Ownership and Management from official FAA records

Ownership: Privately-owned
Owner: MICHAEL COOPER
1075 E 800 S
CLAYTON, IN 46118
Phone 317-539-2809
Manager: MICHAEL COOPER
1075 E 800 S
CLAYTON, IN 46118
Phone 317-539-2809

Airport Operational Statistics

Aircraft based on the field: 2
Single engine airplanes: 2
    

Additional Remarks

FOR CD CTC INDIANAPOLIS APCH AT 317-227-5743.

Instrument Procedures

There are no published instrument procedures at 05IN.

Some nearby airports with instrument procedures:

2R2 - Hendricks County Airport-Gordon Graham Field (6 nm N)
KIND - Indianapolis International Airport (11 nm NE)
KGPC - Putnam County Regional Airport (14 nm W)
KEYE - Eagle Creek Airpark (15 nm NE)
8A4 - Indianapolis Downtown Heliport (18 nm NE)
KHFY - Indy South Greenwood Airport (19 nm E)
 
Loc | Ops | Rwys | IFR | FBO | Links
Com | Nav | Svcs | Stats | Notes
Area around 05IN (Cooper Airport)
 
Road maps at: MapQuest Bing Google
 
Aerial photo
No photo
 
Sectional chart

 
Airport distance calculator
Flying to Cooper Airport? Find the distance to fly.

From to 05IN

Sunrise and sunset
Times for 02-Jun-2020
 Local
(UTC-4)
 Zulu
(UTC)
Morning civil twilight05:4809:48
Sunrise06:2110:21
Sunset21:0801:08
Evening civil twilight21:4001:40

Current date and time
Zulu (UTC)  03-Jun-2020 03:39:36
Local (UTC-4)  02-Jun-2020 23:39:36
 
METAR
KIND 
11nm NE 
030254Z 23011KT 10SM FEW200 24/13 A2993 RMK AO2 SLP128 T02440128 55001
KGPC 
14nm W 
030315Z AUTO 23007KT 10SM CLR 25/13 A2996 RMK AO2 T02480133
KEYE 
15nm NE 
030253Z AUTO 23006KT 10SM CLR 26/12 A2993 RMK AO2 SLP126 T02560122 53001
KHFY 
19nm E 
030115Z AUTO 23007KT 10SM CLR 26/13 A2995 RMK AO2 T02630125
TAF
KIND 
11nm NE 
030225Z 0302/0406 22011KT P6SM SCT200 FM031400 25010G21KT P6SM SCT200 FM032100 25012G22KT P6SM SCT050 BKN100 FM040000 26007KT 6SM -SHRA VCTS SCT050CB BKN090 FM040300 00000KT 6SM -SHRA VCTS SCT050CB BKN060
NOTAMs
Click for the latest NOTAMs
NOTAMs are issued by the DoD/FAA and will open in a separate window not controlled by AirNav.

 

 
 

Would you like to see your business listed on this page?

 If your business provides an interesting product or service to pilots, flight crews, aircraft, or users of the Cooper Airport, you should consider listing it here.  To start the listing process, click on the button below
 
Add a business
 

Other Pages about Cooper Airport

Update a link
 
Copyright © AirNav, LLC. All rights reserved. Privacy Policy  Contact